sat.trackr.live / text

‹ back to catalog

STARLINK-35106

NORAD 65739 · 2025-216F

PAYLOAD ACTIVE UNKNOWN

§ Identity

Operator
Country
US
Launch date
2025-09-25
Launch site
AFETR
Launch vehicle
Mass (kg)
RCS (m²)

Purposes: comms

External: N2YO · Heavens-Above · Gunter

§ Orbital elements

Epoch: 2026-09-20T09:46:42.264768Z

Period
93.85 min
Inclination
53.1585°
Eccentricity
0.0000357
Mean motion
15.34409996 rev/d
Perigee alt
462.4 km
Apogee alt
462.9 km
Semi-major
6,840.8 km
B*
5.5079e-4
RAAN
146.4707°
Arg perigee
58.8725°
Mean anomaly
301.2313°
Rev number
5,635

§ Raw data

STARLINK-351061 65739U 25216F   26263.40743362  .00018285  00000+0  55079-3 0  99962 65739  53.1585 146.4707 0000357  58.8725 301.2313 15.34409996 56350

JSON: /api/v1/satellites/65739 · /tle

For live sub-satellite position, see the globe view (requires WebGL).

§ Visibility from observer

Set your observer location to see the next 7 days of passes ≥ 10°. The values pass through the URL so the page stays shareable.

No JS? Fill the form by hand. The geolocation button needs JavaScript.